Flag for U.S.A. Weather past 2 weeks in Post Falls, Idaho, U.S.A.

Now
30 °F

Low clouds.


Feels Like: 23 °F
Forecast: 28 / 40 °F
Wind: 8 mph from Northeast

Location: Coeur d'Alene Weather Reporting System

Current Time: Jan 30, 2015 at 9:02:02 AM

Latest Report: Jan 30, 2015 at 8:35 AM


Visibility: 10 mi

Pressure: 30.36 "Hg

Humidity: 93%

Dew point: 28 °F

Location of Post FallsLocation

Historic Weather in Post Falls — Graph

°F

Post Falls temperature yesterday

Maximum temperature yesterday: 41 °F (at 3:15 PM)
Minimum temperature yesterday: 27 °F (at 8:55 PM)
Average temperature yesterday: 34 °F

Past Weeks' High & Low Weather Summary

 TemperatureHumidityPressure
High55 °F (Jan 25, 2:15 PM)100% (Jan 16, 8:55 PM)30.50 "Hg (Jan 16, 8:55 PM)
Low21 °F (Jan 16, 11:55 PM)67% (Jan 25, 2:15 PM)29.77 "Hg (Jan 18, 4:55 AM)
Average34 °F90%30.22 "Hg
* Reported Jan 15 7:15 AM — Jan 30 7:55 AM, Post Falls, Weather by CustomWeather, © 2014

Note: Actual official high and low records may vary slightly from our data, if they occured in-between our weather recording intervals... More about our weather records

Advertising

Post Falls weather history for previous 24 hours

 ConditionsComfort  
Time TempWeatherWind HumidityBarometerVisibility
7:55 AM
Jan 30
30 °FLow clouds.6 mph86%30.35 "Hg10 mi
7:35 AM30 °FLow clouds.7 mph86%30.36 "Hg10 mi
7:15 AM30 °FLow clouds.7 mph93%30.35 "Hg10 mi
6:55 AM30 °FLow clouds.6 mph93%30.35 "Hg10 mi
6:35 AM30 °FLow clouds.5 mph86%30.36 "Hg10 mi
6:15 AM30 °FLow clouds.7 mph93%30.36 "Hg10 mi
5:55 AM30 °FLow clouds.6 mph86%30.36 "Hg10 mi
5:35 AM30 °FLow clouds.7 mph93%30.35 "Hg10 mi
5:15 AM30 °FLow clouds.9 mph86%30.35 "Hg10 mi
4:55 AM30 °FLow clouds.14 mph93%30.35 "Hg10 mi
4:35 AM30 °FLow clouds.9 mph93%30.35 "Hg10 mi
4:15 AM30 °FLow clouds.8 mph93%30.35 "Hg10 mi
3:55 AM30 °FLow clouds.10 mph93%30.34 "Hg9 mi
3:35 AM30 °FLow clouds.12 mph93%30.35 "Hg6 mi
2:55 AM30 °FLow clouds.6 mph93%30.35 "Hg9 mi
2:35 AM30 °FLow clouds.9 mph93%30.36 "Hg6 mi
2:15 AM30 °FLow clouds.9 mph93%30.36 "Hg3 mi
1:55 AM30 °FLow clouds.9 mph93%30.35 "Hg1 mi
1:35 AM32 °FLow clouds.9 mph87%30.36 "Hg3 mi
1:15 AM32 °FLow clouds.13 mph93%30.36 "Hg10 mi
12:55 AM30 °FPassing clouds.9 mph93%30.36 "Hg10 mi
12:35 AM30 °FPassing clouds.7 mph86%30.36 "Hg10 mi
12:15 AM30 °FLow clouds.8 mph93%30.37 "Hg10 mi
11:55 PM
Jan 29
30 °FLow clouds.6 mph93%30.36 "Hg2 mi
11:35 PM32 °FLow clouds.9 mph87%30.36 "Hg1 mi
11:15 PM30 °FLow clouds.8 mph93%30.37 "Hg0 mi
10:55 PM30 °FLow clouds.8 mph93%30.37 "Hg0 mi
10:35 PM28 °FLow clouds.6 mph86%30.36 "Hg1 mi
9:55 PM27 °FClear.No wind93%30.36 "Hg2 mi
9:35 PM27 °FPassing clouds.No wind93%30.36 "Hg1 mi
9:15 PM27 °FClear.No wind93%30.36 "Hg3 mi
8:55 PM27 °FIce fog.No wind93%30.36 "Hg1 mi
8:35 PM28 °FClear.No wind86%30.36 "Hg1 mi
8:15 PM28 °FLow clouds.No wind86%30.36 "Hg0 mi
7:35 PM30 °FLow clouds.5 mph86%30.36 "Hg0 mi
7:15 PM30 °FClear.5 mph93%30.36 "Hg9 mi
6:55 PM30 °FClear.6 mph86%30.36 "Hg10 mi
6:35 PM30 °FClear.5 mph93%30.36 "Hg10 mi
6:15 PM32 °FClear.No wind87%30.35 "Hg10 mi
5:55 PM32 °FClear.5 mph87%30.36 "Hg10 mi
5:35 PM34 °FClear.9 mph81%30.36 "Hg10 mi
5:15 PM34 °FClear.5 mph87%30.36 "Hg10 mi
4:55 PM36 °FClear.No wind81%30.36 "Hg10 mi
4:35 PM36 °FSunny.No wind81%30.36 "Hg10 mi
4:15 PM36 °FSunny.No wind81%30.34 "Hg10 mi
3:55 PM39 °FSunny.3 mph81%30.34 "Hg10 mi
3:35 PM39 °FSunny.No wind81%30.34 "Hg10 mi
3:15 PM41 °FSunny.3 mph76%30.34 "Hg10 mi
2:55 PM39 °FSunny.6 mph87%30.35 "Hg10 mi
2:35 PM37 °FSunny.3 mph87%30.35 "Hg10 mi
2:15 PM37 °FSunny.6 mph81%30.35 "Hg10 mi
1:55 PM39 °FSunny.3 mph81%30.36 "Hg10 mi
1:35 PM39 °FSunny.8 mph81%30.36 "Hg10 mi
1:15 PM39 °FSunny.8 mph81%30.37 "Hg10 mi
12:55 PM37 °FSunny.9 mph81%30.38 "Hg10 mi
12:35 PM37 °FPassing clouds.10 mph87%30.38 "Hg10 mi
12:15 PM37 °FPartly sunny.13 mph81%30.39 "Hg10 mi
11:55 AM36 °FLow clouds.12 mph87%30.40 "Hg10 mi
11:35 AM36 °FLow clouds.12 mph81%30.41 "Hg10 mi
11:15 AM36 °FLow clouds.12 mph81%30.42 "Hg10 mi
10:55 AM36 °FLow clouds.13 mph81%30.42 "Hg10 mi
10:35 AM34 °FLow clouds.14 mph87%30.42 "Hg10 mi
10:15 AM34 °FLow clouds.15 mph87%30.43 "Hg10 mi
9:55 AM36 °FScattered clouds.14 mph81%30.43 "Hg10 mi
9:35 AM34 °FPartly sunny.14 mph93%30.43 "Hg10 mi
9:15 AM34 °FLow clouds.13 mph87%30.43 "Hg10 mi
Weather by CustomWeather, © 2014

See weather overviewHow to use our weather pages